FW3988 Weather Reports


time (UTC)temp
C
wind
direction
speed
KPH
gust
KPH
rain 1hr
cm
rain 24hr
cm
rain mn
cm
humidity
%
barometer
mb
20260503214545 28 261 9.7 17.7 0.00 0.00 0.00 65 1012.2
20260503213044 28 255 11.3 22.5 0.00 0.00 0.00 66 1012.3
20260503211527 28 219 11.3 19.3 0.00 0.00 0.00 67 1012.4
20260503204549 29 201 6.4 19.3 0.00 0.00 0.00 67 1012.5
20260503203103 29 207 6.4 16.1 0.00 0.00 0.00 71 1012.6
20260503201543 29 232 6.4 17.7 0.00 0.00 0.00 72 1012.8
20260503200002 28 233 12.9 19.3 0.00 0.00 0.00 73 1013.0
20260503194601 28 233 9.7 19.3 0.00 0.00 0.00 74 1013.3
20260503194501 28 231 9.7 20.9 0.00 0.00 0.00 74 1013.3
20260503193052 28 219 11.3 24.1 0.00 0.00 0.00 74 1013.5
20260503191548 28 262 9.7 19.3 0.00 0.00 0.00 73 1013.7
20260503190137 27 208 12.9 17.7 0.00 0.00 0.00 74 1013.7
20260503184511 28 227 9.7 19.3 0.00 0.00 0.00 74 1013.7
20260503183101 28 238 11.3 19.3 0.00 0.00 0.00 74 1013.7
20260503181604 28 219 8.0 16.1 0.00 0.00 0.00 72 1013.7
20260503180148 28 218 6.4 16.1 0.00 0.00 0.00 71 1013.7
20260503174540 27 200 9.7 17.7 0.00 0.00 0.00 72 1013.9
20260503173042 28 158 9.7 17.7 0.00 0.00 0.00 67 1014.0
20260503171512 28 213 8.0 16.1 0.00 0.00 0.00 60 1014.0
20260503160142 28 199 0.0 4.8 0.00 0.00 0.00 58 1014.0
20260503140139 24 20 0.0 3.2 0.00 0.00 0.00 67 1013.4
20260503130147 22 20 0.0 0.0 0.00 0.00 0.00 64 1012.6
20260503120134 22 5 0.0 3.2 0.00 0.00 0.00 61 1011.8
20260503110142 22 5 0.0 3.2 0.00 0.00 0.00 60 1011.3
20260503100155 22 355 0.0 0.0 0.00 0.00 0.00 64 1011.0
20260503081549 24 323 0.0 3.2 0.00 0.00 0.00 64 1011.5
20260503080149 24 322 0.0 0.0 0.00 0.00 0.00 66 1011.8
20260503071559 25 322 0.0 0.0 0.00 0.00 0.00 66 1012.0
20260503070140 25 322 0.0 0.0 0.00 0.00 0.00 69 1011.9
20260503054546 25 322 0.0 3.2 0.00 0.00 0.00 70 1011.7
20260503053022 25 322 0.0 3.2 0.00 0.00 0.00 72 1011.9
20260503051557 25 322 0.0 3.2 0.00 0.00 0.00 71 1011.9
20260503050013 25 324 0.0 4.8 0.00 0.00 0.00 72 1011.9
20260503044609 25 310 1.6 4.8 0.00 0.00 0.00 71 1011.9
20260503043055 26 314 3.2 4.8 0.00 0.00 0.00 69 1012.1
20260503041545 26 313 0.0 6.4 0.00 0.00 0.00 68 1011.7
20260503040006 26 310 1.6 6.4 0.00 0.00 0.00 67 1011.5
20260503034502 26 277 1.6 9.7 0.00 0.00 0.00 66 1011.2
20260503033108 26 325 3.2 9.7 0.00 0.00 0.00 63 1010.9
20260503031604 26 281 1.6 9.7 0.00 0.00 0.00 61 1010.7
20260503030150 26 286 4.8 11.3 0.00 0.00 0.00 57 1010.5
20260503024536 26 309 1.6 14.5 0.00 0.00 0.00 63 1010.1
20260503023028 26 319 1.6 12.9 0.00 0.00 0.00 69 1009.9
20260503021606 26 281 4.8 12.9 0.00 0.00 0.00 71 1010.0
20260503020139 26 304 8.0 12.9 0.00 0.00 0.00 71 1009.8
20260503014520 26 304 6.4 17.7 0.00 0.00 0.00 68 1009.7
20260503013011 26 286 4.8 19.3 0.00 0.00 0.00 68 1009.6
20260503011506 27 281 9.7 20.9 0.00 0.00 0.00 67 1009.7
20260503010029 27 284 12.9 19.3 0.00 0.00 0.00 66 1009.7
20260503004509 28 292 6.4 17.7 0.00 0.00 0.00 65 1009.2
20260503003106 28 257 8.0 17.7 0.00 0.00 0.00 64 1008.9
20260503001544 28 258 8.0 16.1 0.00 0.00 0.00 64 1009.0
20260503000134 28 323 11.3 22.5 0.00 0.00 0.00 60 1008.9
20260502234518 28 279 11.3 20.9 0.00 0.00 0.00 54 1009.0
20260502233001 29 279 11.3 19.3 0.00 0.00 0.00 53 1008.9
20260502231602 29 302 9.7 16.1 0.00 0.00 0.00 51 1008.7
20260502230006 30 304 8.0 17.7 0.00 0.00 0.00 45 1008.8
20260502224505 30 262 8.0 16.1 0.00 0.00 0.00 45 1008.9
20260502223052 29 263 11.3 22.5 0.00 0.00 0.00 48 1008.8
20260502221545 30 275 8.0 22.5 0.00 0.00 0.00 52 1009.0
20260502220133 30 258 12.9 22.5 0.00 0.00 0.00 54 1009.4